sat.trackr.live / text

‹ back to catalog

ONEWEB-0641

NORAD 55805 · 2023-029K

PAYLOAD ACTIVE UNKNOWN

§ Identity

Operator
Country
UK
Launch date
2023-03-09
Launch site
AFETR
Launch vehicle
Mass (kg)
RCS (m²)

Purposes: comms

External: N2YO · Heavens-Above · Gunter

§ Orbital elements

Epoch: 2026-05-24T23:29:34.414656Z

Period
109.11 min
Inclination
87.9156°
Eccentricity
0.0001632
Mean motion
13.19726448 rev/d
Perigee alt
1,184.5 km
Apogee alt
1,187.0 km
Semi-major
7,563.9 km
B*
-8.2095e-5
RAAN
309.5906°
Arg perigee
92.6159°
Mean anomaly
267.5161°
Rev number
15,585

§ Raw data

ONEWEB-06411 55805U 23029K   26144.97887054 -.00000020  00000+0 -82095-4 0  99952 55805  87.9156 309.5906 0001632  92.6159 267.5161 13.19726448155854

JSON: /api/v1/satellites/55805 · /tle

For live sub-satellite position, see the globe view (requires WebGL).

§ Visibility from observer

Set your observer location to see the next 7 days of passes ≥ 10°. The values pass through the URL so the page stays shareable.

No JS? Fill the form by hand. The geolocation button needs JavaScript.